星链-2399 (STARLINK-2399 )

导读

STARLINK-2399是美国SpaceX公司星链(Starlink)星座的卫星,属于第一代星链V1.5批次,于2021年3月11日由猎鹰9号火箭发射升空。卫星重量约295公斤,配备氪离子推进系统,运行在近地轨道,为全球提供低延迟宽带互联网服务,设计寿命约5年,属于SpaceX大规模卫星互联网组网的重要组成部分。

基本信息
目录编号:
47816
目录名称:
STARLINK-2399
国际标识:
2021-018AF
轨道中心:
EARTH
卫星名称:
星链-2399
卫星全名:
星链-2399 (STARLINK-2399 )
卫星状态:
在轨 (已飞行2010 天)
发射日期:
2021-03-11 UTC
国别 :
美国 (US)
星等 :
--
该卫星已列入 空间交会检测服务 Space Conjunction Data Service (SCDS) ,当前飞行风险评估等级: 无高风险
轨道信息
数据来源 国际轨道数据 AOE轨道数据
星历时间 2026-09-10T07:01:02+0800
1天前
查看轨道信息
2026-09-10T05:00:00+0800
1天前
查看轨道信息
半长轴 6848.818km 6848.818km
偏心率 0.0001723 0.0000816
轨道倾角 53.160° 53.163°
近地点辐角 47.233° 86.617°
升交点赤经 120.651° 121.033°
平近点角 312.881° 169.781°
近地点 469.5km 470.122km
远地点 471.862km 471.24km
周期 94.012分钟 94.012分钟
每日圈数 15.317198 15.317198
详细信息
固有亮度:
5
最大亮度:
2.5
卫星平台:
Starlink V1.0
覆盖范围:
全球
运营商:
太空探索技术公司
运营商所在国:
美国
制造商(研发单位):
太空探索技术公司
制造商所在国:
美国
使用方式:
暂无
卫星简介
星链(Starlink)计划是由太空探索技术公司(SpaceX)提出的一个巨型低轨卫星互联网星座项目,计划在2019年至2024年间在太空搭建由约1.2万颗卫星组成的“星链”网络,其中1584颗将部署在地球上空550千米处的近地轨道,并从2020年开始工作。该卫星仍在工作。
2D轨道图
3D轨道图
轨道高度分析图
轨道倾角分析图
轨道综合分析图
查看轨道综合分析图
与全量物体交会距离演化趋势
与全量物体交会风险概率演化趋势